Back to catalog

STARLINK-32337

AliveCommunicationsVLEO
NORAD 61643·PAYLOAD·🇺🇸 United States

Launched Oct 23, 2024 from Cape Canaveral Space Force Station

Loading…

Next Passes (next 24 hours)

TLE

FreshSource: CelesTrak SupGP

Epoch: Sep 15, 2026, 03:31 UTC

1 61643C 24191Y   26258.14701389  .00029253  00000+0  10597-2 0  2585
2 61643  43.0000 164.4746 0001259 277.6126  33.4500 15.27558908    15

Track STARLINK-32337 in real time with AllMySat

Download on the App Store